Regional Weather Roundup
Issued by NWS Mt. Holly, NJ

Home | Current Version | Previous Version | Text Only | Print | Product List | Glossary On
Versions: 1 2 3 4 5 6 7 8 9 10 11 12 13 14 15 16 17 18 19 20 21 22 23 24 25 26 27 28 29 30 31 32 33 34 35 36 37 38 39 40 41 42 43 44 45 46 47 48 49 50
000
ASUS41 KPHI 240912
RWRPHI

REGIONAL WEATHER ROUNDUP
NATIONAL WEATHER SERVICE MOUNT HOLLY NJ
500 AM EDT THU AUG 24 2017

NOTE:  "FAIR" INDICATES FEW OR NO CLOUDS BELOW 12,000 FEET WITH NO
SIGNIFICANT WEATHER AND/OR OBSTRUCTIONS TO VISIBILITY.

 * = STATION DOES NOT REPORT PRECIPITATION (E.G. RAIN, SNOW, ETC.)
        OR FOG.

NJZ015>026-241000-
SOUTHERN NEW JERSEY

CITY           SKY/WX    TMP DP  RH WIND       PRES   REMARKS
POMONA         CLEAR     63  57  81 CALM      29.89R
WILDWOOD*      PTCLDY    63  59  87 CALM      29.90R
MILLVILLE      CLEAR     59  58  96 W3        29.90R
WRIGHTSTOWN    CLEAR     59  57  92 CALM      29.88R
MOUNT HOLLY    CLEAR     58  58 100 CALM      29.90R
TRENTON        CLEAR     62  57  83 NW3       29.91R

$$
NJZ001>014-241000-
NORTHERN NEW JERSEY

CITY           SKY/WX    TMP DP  RH WIND       PRES   REMARKS
SUSSEX         CLEAR     54  54 100 CALM      29.92S
ANDOVER*         N/A     56  54  93 CALM      29.93S
MORRISTOWN     CLEAR     55  55 100 CALM      29.91R
NEWARK         CLEAR     68  55  63 N8        29.89R
TETERBORO      CLEAR     64  56  75 CALM      29.89R
CALDWELL       CLEAR     59  58  96 CALM      29.91R
SOMERVILLE     CLEAR     57  56  96 CALM      29.89S FOG
ALLAIRE*       PTCLDY    61  57  87 NW5       29.91R
TOMS RIVER*    CLEAR     56  54  93 CALM      29.90R

$$
PAZ043-044-047-054-055-060>062-066>071-241000-
EASTERN PENNSYLVANIA

CITY           SKY/WX    TMP DP  RH WIND       PRES   REMARKS
PHILADELPHIA   PTCLDY    67  55  65 N7        29.91R
NORTH PHILA    CLEAR     65  56  72 N3        29.92R
BLUE BELL*     CLEAR     55  55 100 CALM      29.92S
DOYLESTOWN     CLEAR     60  56  86 NE3       29.91S
QUAKERTOWN*    CLEAR     55  55 100 CALM      29.94R
PERKASIE*      FAIR      55  55 100 CALM      29.93S
POTTSTOWN      CLEAR     57  56  96 CALM      29.94R
LANCASTER      CLEAR     61  58  90 CALM      29.93R
COATESVILLE    CLEAR     61  55  82 NW5       29.94R
READING        CLEAR     60  58  92 CALM      29.92R
ALLENTOWN      CLEAR     60  56  86 CALM      29.93R
MOUNT POCONO   CLEAR     53  52  96 N6        29.95S
HAZLETON         N/A     54  50  87 CALM      29.99R
LEHIGHTON      FAIR      52  52 100 CALM      29.95R
WILKES BARRE   CLEAR     56  54  93 CALM      29.95R

$$
DEZALL-MDZ008-012-015-019-020-241000-
DELAWARE AND EASTERN MARYLAND

CITY           SKY/WX    TMP DP  RH WIND       PRES   REMARKS
WILMINGTON     MOCLDY    62  59  90 NW7       29.92R
DOVER          CLEAR     66  57  72 NW5       29.90R
GEORGETOWN     PTCLDY    66  59  78 CALM      29.91R
EASTON         CLEAR     64  61  88 NE3       29.95R
ABERDEEN       CLOUDY    65  57  75 CALM      29.92R
PATUXENT       CLOUDY    70  68  93 NW6       29.90R
OCEAN CITY     CLEAR     65  64  97 NW6       29.90R
WALLOPS ISLAND PTCLDY    67  65  93 N3        29.90R
CAMBRIDGE      CLOUDY    66  63  88 CALM      29.91R
SALISBURY      MOCLDY    65  62  90 CALM      29.90R

$$
PAZ001-021-NYZ056-072-MDZ011-DCZ001-241000-
OTHER NEARBY LOCATIONS

CITY           SKY/WX    TMP DP  RH WIND       PRES   REMARKS
HARRISBURG     PTCLDY    63  59  87 CALM      29.93R
STATE COLLEGE  PTCLDY    54  53  97 CALM      29.98S
WILLIAMSPORT   PTCLDY    57  55  93 N3        29.96R
BINGHAMTON     CLEAR     55  53  93 NW5       29.96R
NEW YORK CITY  CLEAR     67  56  67 CALM      29.92R
BALTIMORE      CLOUDY    67  60  78 NW3       29.92R
WASHINGTON DC  CLOUDY    73  59  61 NW8       29.93R

$$



USA.gov is the U.S. government's official web portal to all federal, state and local government web resources and services.